Location: Newark
(43.6583°N, 1.6617°E)
Time: 16:15:14
(UTC+00:00)

Transit 4A - Pass Details

Date: 30 August 2019
Orbit: 865 x 980 km, 66.8° (Epoch: 21 September)

Event Time Altitude Azimuth Distance (km) Brightness Sun altitude
Rises 02:11:08 0° 321° (NW) 3,614 11.1 -28.7°
Reaches altitude 10° 02:13:56 10° 312° (NW) 2,647 10.3 -28.4°
Enters shadow 02:15:26 17° 303° (WNW) 2,183 9.7 -28.2°
